Date String (YYYY-MM-DD hh:mm:ss) UTC,Instrument flags,Ambient pressure (hPa),Sample flow (lpm),Bypass flow (lpm),Sample temperature (°C),Ambient temperature (°C),ASC tube jacket temperature (°C),LED temperature (°C),Box temperature (°C),Sample RH (%),Span deviation,Mass concentration (μg/m³),Mass concentration (μg/m³),Mass concentration (μg/m³)
DateTimeUTC,F1_M11,P_M11,Q1_M11,Q2_M11,T1_M11,T2_M11,T3_M11,T4_M11,T5_M11,U1_M11,ZSPAN_M11,X0_M11,X2_M11,X1_M11
2023-02-23 03:00:00,,0813.1,5.04,0.00,23.0,23.5,00.0,31.5,24.8,03.7,0000.0,0005.91,0002.67,0002.12
2023-02-23 03:01:00,,0813.2,4.99,0.00,23.0,23.0,00.0,31.6,24.7,03.7,0000.0,0005.85,0002.65,0002.11
2023-02-23 03:02:00,,0813.2,5.00,0.00,22.9,22.3,00.0,31.6,24.5,03.7,0000.0,0005.81,0002.62,0002.08
2023-02-23 03:03:00,,0813.4,4.98,0.00,22.8,21.6,00.0,31.6,24.3,03.7,0000.0,0005.65,0002.59,0002.05
2023-02-23 03:04:00,,0813.5,5.00,0.00,22.8,21.1,00.0,31.6,24.2,03.7,0000.0,0005.46,0002.55,0002.01
2023-02-23 03:05:00,,0813.4,4.99,0.00,22.7,20.9,00.0,31.5,24.0,03.7,0000.0,0004.20,0002.49,0001.97
2023-02-23 03:06:00,,0813.5,5.03,0.00,22.7,21.7,00.0,31.5,24.3,03.7,0000.0,0003.97,0002.41,0001.92
2023-02-23 03:07:00,,0813.4,4.99,0.00,22.8,22.6,00.0,31.5,24.5,03.7,0000.0,0003.83,0002.38,0001.90
2023-02-23 03:08:00,,0813.5,4.99,0.00,22.9,23.3,00.0,31.5,24.7,03.6,0000.0,0003.70,0002.38,0001.89
2023-02-23 03:09:00,,0813.4,4.99,0.00,23.0,23.4,00.0,31.5,24.8,03.6,0000.0,0003.56,0002.36,0001.88
2023-02-23 03:10:00,,0813.3,4.98,0.00,22.9,22.7,00.0,31.6,24.6,03.6,0000.0,0003.58,0002.37,0001.87
2023-02-23 03:11:00,,0813.2,5.02,0.00,22.9,21.9,00.0,31.6,24.4,03.6,0000.0,0003.63,0002.35,0001.84
2023-02-23 03:12:00,,0813.2,5.00,0.00,22.8,21.4,00.0,31.6,24.2,03.6,0000.0,0003.74,0002.34,0001.82
2023-02-23 03:13:00,,0813.3,5.00,0.00,22.7,21.1,00.0,31.5,24.1,03.6,0000.0,0003.76,0002.33,0001.81
2023-02-23 03:14:00,,0813.4,5.02,0.00,22.7,21.8,00.0,31.5,24.3,03.6,0000.0,0003.68,0002.30,0001.81
2023-02-23 03:15:00,,0813.5,5.00,0.00,22.8,22.7,00.0,31.5,24.5,03.6,0000.0,0003.66,0002.31,0001.80
2023-02-23 03:16:00,,0813.6,5.01,0.00,22.9,23.4,00.0,31.5,24.8,03.6,0000.0,0003.80,0002.36,0001.80
2023-02-23 03:17:00,,0813.6,5.00,0.00,23.0,23.5,00.0,31.6,24.8,03.5,0000.0,0003.73,0002.37,0001.82
2023-02-23 03:18:00,,0813.6,5.01,0.00,23.0,22.8,00.0,31.6,24.6,03.5,0000.0,0003.68,0002.37,0001.82
2023-02-23 03:19:00,,0813.6,4.99,0.00,22.9,22.0,00.0,31.6,24.3,03.6,0000.0,0003.57,0002.34,0001.80
2023-02-23 03:20:00,,0813.6,5.02,0.00,22.8,21.5,00.0,31.6,24.2,03.6,0000.0,0003.49,0002.30,0001.81
2023-02-23 03:21:00,,0813.6,4.99,0.00,22.7,21.0,00.0,31.6,24.1,03.6,0000.0,0003.56,0002.28,0001.81
2023-02-23 03:22:00,,0813.6,5.01,0.00,22.6,20.8,00.0,31.5,24.0,03.6,0000.0,0003.68,0002.25,0001.81
2023-02-23 03:23:00,,0813.6,5.00,0.00,22.7,21.6,00.0,31.5,24.2,03.6,0000.0,0003.51,0002.20,0001.81
2023-02-23 03:24:00,,0813.6,5.02,0.00,22.8,22.5,00.0,31.5,24.5,03.6,0000.0,0003.52,0002.22,0001.81
2023-02-23 03:25:00,,0814.0,5.01,0.00,22.9,23.2,00.0,31.5,24.7,03.6,0000.0,0003.61,0002.25,0001.80
2023-02-23 03:26:00,,0813.9,5.01,0.00,22.9,22.8,00.0,31.5,24.6,03.6,0000.0,0004.22,0002.25,0001.80
2023-02-23 03:27:00,,0814.1,4.99,0.00,22.9,22.1,00.0,31.5,24.4,03.6,0000.0,0004.32,0002.23,0001.81
2023-02-23 03:28:00,,0813.9,5.00,0.00,22.8,21.5,00.0,31.5,24.3,03.6,0000.0,0004.38,0002.23,0001.78
2023-02-23 03:29:00,,0814.2,5.00,0.00,22.7,21.1,00.0,31.5,24.1,03.6,0000.0,0004.39,0002.23,0001.78
2023-02-23 03:30:00,,0814.2,5.01,0.00,22.6,20.8,00.0,31.5,24.0,03.6,0000.0,0004.71,0002.28,0001.80
2023-02-23 03:31:00,,0814.3,5.00,0.00,22.6,21.6,00.0,31.5,24.2,03.6,0000.0,0005.27,0002.34,0001.82
2023-02-23 03:32:00,,0813.9,4.99,0.00,22.7,22.4,00.0,31.4,24.4,03.6,0000.0,0005.23,0002.35,0001.83
2023-02-23 03:33:00,,0814.0,5.00,0.00,22.8,23.2,00.0,31.4,24.7,03.6,0000.0,0004.92,0002.37,0001.86
2023-02-23 03:34:00,,0814.2,5.00,0.00,22.9,23.4,00.0,31.5,24.8,03.6,0000.0,0005.03,0002.43,0001.88
2023-02-23 03:35:00,,0813.9,5.01,0.00,22.9,22.6,00.0,31.5,24.6,03.6,0000.0,0005.00,0002.42,0001.88
2023-02-23 03:36:00,,0814.2,5.02,0.00,22.8,21.9,00.0,31.5,24.3,03.6,0000.0,0004.89,0002.39,0001.88
2023-02-23 03:37:00,,0814.2,5.00,0.00,22.7,21.4,00.0,31.5,24.1,03.6,0000.0,0004.26,0002.36,0001.88
2023-02-23 03:38:00,,0814.2,5.00,0.00,22.6,20.8,00.0,31.5,24.0,03.7,0000.0,0003.99,0002.34,0001.88
2023-02-23 03:39:00,,0814.1,5.01,0.00,22.6,21.0,00.0,31.5,24.0,03.7,0000.0,0003.94,0002.35,0001.90
2023-02-23 03:40:00,,0814.1,5.02,0.00,22.7,21.9,00.0,31.4,24.3,03.7,0000.0,0003.90,0002.32,0001.89
2023-02-23 03:41:00,,0814.0,5.01,0.00,22.8,22.7,00.0,31.4,24.5,03.6,0000.0,0003.59,0002.27,0001.88
2023-02-23 03:42:00,,0813.9,4.97,0.00,22.9,23.4,00.0,31.4,24.7,03.6,0000.0,0003.05,0002.21,0001.87
2023-02-23 03:43:00,,0813.8,4.98,0.00,22.9,23.0,00.0,31.5,24.7,03.6,0000.0,0003.05,0002.20,0001.86
2023-02-23 03:44:00,,0814.1,5.01,0.00,22.8,22.2,00.0,31.5,24.5,03.6,0000.0,0003.08,0002.21,0001.85
2023-02-23 03:45:00,,0814.1,5.00,0.00,22.8,21.6,00.0,31.5,24.2,03.6,0000.0,0003.06,0002.21,0001.85
2023-02-23 03:46:00,,0814.0,5.00,0.00,22.7,21.1,00.0,31.5,24.1,03.6,0000.0,0003.07,0002.22,0001.86
2023-02-23 03:47:00,,0813.9,5.00,0.00,22.6,20.8,00.0,31.5,23.9,03.6,0000.0,0003.05,0002.20,0001.86
2023-02-23 03:48:00,,0814.1,5.01,0.00,22.6,21.4,00.0,31.4,24.2,03.6,0000.0,0003.29,0002.26,0001.86
2023-02-23 03:49:00,,0814.0,5.01,0.00,22.7,22.3,00.0,31.4,24.4,03.6,0000.0,0003.36,0002.29,0001.87
2023-02-23 03:50:00,,0814.1,4.99,0.00,22.8,23.0,00.0,31.4,24.6,03.6,0000.0,0003.35,0002.30,0001.88
2023-02-23 03:51:00,,0814.2,4.98,0.00,22.9,23.3,00.0,31.4,24.7,03.6,0000.0,0003.41,0002.34,0001.90
2023-02-23 03:52:00,,0814.2,5.00,0.00,22.9,22.6,00.0,31.5,24.5,03.6,0000.0,0003.45,0002.36,0001.93
2023-02-23 03:53:00,,0814.1,5.03,0.00,22.8,21.9,00.0,31.5,24.3,03.6,0000.0,0003.47,0002.37,0001.93
2023-02-23 03:54:00,,0814.0,5.01,0.00,22.7,21.3,00.0,31.5,24.1,03.6,0000.0,0003.52,0002.41,0001.95
2023-02-23 03:55:00,,0814.2,4.99,0.00,22.6,20.8,00.0,31.5,23.9,03.6,0000.0,0003.52,0002.41,0001.97
2023-02-23 03:56:00,,0814.2,5.01,0.00,22.6,20.9,00.0,31.4,24.0,03.6,0000.0,0003.79,0002.45,0001.97
2023-02-23 03:57:00,,0814.3,5.01,0.00,22.6,21.8,00.0,31.4,24.3,03.6,0000.0,0003.85,0002.45,0001.97
2023-02-23 03:58:00,,0814.2,4.99,0.00,22.7,22.7,00.0,31.4,24.5,03.6,0000.0,0003.93,0002.47,0001.98
2023-02-23 03:59:00,,0814.3,4.99,0.00,22.8,23.3,00.0,31.4,24.7,03.6,0000.0,0003.92,0002.50,0002.00
